Terminal Aerodrome Forecast
Issued by NWS

Home | Current Version | Previous Version | Text Only | Print | Product List | Glossary On
Versions: 1 2 3 4 5 6 7 8 9 10 11 12 13 14 15 16
000
FTUS45 KRIW 281700
TAFLND
TAF
KLND 281720Z 2818/2918 26011G25KT P6SM SKC WS018/25050KT
     FM290300 24028G50KT P6SM SKC WS012/25065KT
     FM290900 26012G24KT P6SM FEW140 SCT200 WS015/25045KT=

USA.gov is the U.S. government's official web portal to all federal, state and local government web resources and services.